Location: Daerah Kuala Lumpur
(3.1167°N, 101.6833°E)
Time: 21:53:16
(UTC+00:00)

GEOS 3 Rocket - Pass Details

Date: 05 August 2024
Orbit: 789 x 827 km, 115.0° (Epoch: 17 September)

Event Time Altitude Azimuth Distance (km) Brightness Sun altitude
Rises 22:43:37 0° 11° (N) 3,267 7.2 -7.6°
Reaches altitude 10° 22:46:05 10° 2° (N) 2,339 6.3 -7.0°
Maximum altitude 22:50:34 32° 299° (WNW) 1,315 4.4 -6.0°
Drops below altitude 10° 22:55:04 10° 237° (WSW) 2,349 5.4 -4.9°
Enters shadow 22:56:59 - 229° (SW) 3,061 6.0 -4.4°
